Location: Zagreb
(45.8000°N, 16.0000°E)
Time: 13:29:28
(UTC+01:00)

ISS - Visible Passes

Search period start: 30 January 2023 00:00
Search period end: 09 February 2023 00:00
Orbit: 413 x 419 km, 51.6° (Epoch: 30 January)

Date Brightness Start Highest point End Pass type
(mag) Time Alt. Az. Time Alt. Az. Time Alt. Az.
30 Jan -3.8 18:33:04 10° WNW 18:36:26 65° NNE 18:37:03 51° ENE visible
31 Jan -3.3 17:44:25 10° WNW 17:47:41 47° NNE 17:50:43 12° E visible
31 Jan -2.0 19:21:15 10° WNW 19:23:38 31° WSW 19:23:38 31° WSW visible
01 Feb -3.3 18:32:26 10° WNW 18:35:45 59° SSW 18:37:25 26° SE visible
02 Feb -3.8 17:43:39 10° WNW 17:47:02 89° NNE 17:50:24 10° ESE visible
02 Feb -1.1 19:21:17 10° W 19:23:21 15° SW 19:24:18 14° SSW visible
03 Feb -1.5 18:31:57 10° W 18:34:46 25° SW 18:37:34 10° SSE visible
04 Feb -2.3 17:42:55 10° WNW 17:46:06 39° SW 17:49:15 10° SSE visible
05 Feb -0.2 18:33:05 10° SW 18:33:28 10° SW 18:33:52 10° SW visible
06 Feb -0.7 17:42:36 10° W 17:44:50 17° SW 17:47:06 10° S visible
